This is the latest recevied weather packets stored in our database for station/object K1ABC. If no packets are shown the sender has not sent any weather packets the latest 1 day(s).
| Time | Temp. | Humidity | Pressure | Rain* | Wind** | Luminosity | Snow |
|---|---|---|---|---|---|---|---|
| 1836274552 | 13.33° C | 65% | 1020.1 hPa | 0 mm | 0 m/s | - | - |
| 1836274118 | 13.33° C | 64% | 1020 hPa | 0 mm | 0 m/s | - | - |
| 1778051472 | 18.33° C | 65% | 1008.1 hPa | 0 mm | 1.34 m/s, 205° | - | - |
| 1778048787 | 18.33° C | 63% | 1007.8 hPa | 0 mm | 1.34 m/s, 223° | - | - |
| 1778048464 | 18.33° C | 63% | 1007.9 hPa | 0 mm | 1.34 m/s, 245° | - | - |
| 1778048016 | 18.33° C | 63% | 1007.9 hPa | 0 mm | 1.79 m/s, 230° | - | - |
| 1778047810 | 18.33° C | 63% | 1007.9 hPa | 0 mm | 1.79 m/s, 233° | - | - |
| 1778046374 | 18.33° C | 63% | 1008.2 hPa | 0 mm | 0.89 m/s, 236° | - | - |
| 1778045419 | 18.33° C | 63% | 1008.3 hPa | 0 mm | 0.89 m/s, 205° | - | - |
| 1778044597 | 18.33° C | 62% | 1008.4 hPa | 0 mm | 1.34 m/s, 229° | - | - |
| 1778042895 | 18.33° C | 61% | 1008.6 hPa | 0 mm | 1.34 m/s, 224° | - | - |
| 1778042694 | 18.33° C | 61% | 1008.6 hPa | 0 mm | 1.34 m/s, 226° | - | - |
| 1778041861 | 18.89° C | 60% | 1008.5 hPa | 0 mm | 1.34 m/s, 223° | - | - |
| 1778041660 | 18.89° C | 60% | 1008.5 hPa | 0 mm | 1.34 m/s, 206° | - | - |
| 1778041209 | 18.89° C | 60% | 1008.5 hPa | 0 mm | 1.34 m/s, 191° | - | - |
| 1778040887 | 18.89° C | 59% | 1008.5 hPa | 0 mm | 1.34 m/s, 229° | - | - |
| 1778040564 | 18.89° C | 59% | 1008.4 hPa | 0 mm | 1.79 m/s, 242° | - | - |
| 1778039616 | 19.44° C | 58% | 1008.4 hPa | 0 mm | 1.34 m/s, 224° | - | - |
| 1778037147 | 20° C | 56% | 1008.3 hPa | 0 mm | 1.34 m/s, 210° | - | - |
| 1778036208 | 20° C | 56% | 1008.2 hPa | 0 mm | 1.34 m/s, 237° | - | - |
| 1778036011 | 20° C | 56% | 1008.2 hPa | 0 mm | 1.34 m/s, 224° | - | - |
| 1778033952 | 21.11° C | 53% | 1008.3 hPa | 0 mm | 1.79 m/s, 228° | - | - |
| 1778033510 | 21.11° C | 52% | 1008.3 hPa | 0 mm | 1.79 m/s, 234° | - | - |
| 1778031334 | 21.11° C | 53% | 1008.3 hPa | 0 mm | 1.34 m/s, 202° | - | - |
| 1778030632 | 21.11° C | 52% | 1008.4 hPa | 0 mm | 0.89 m/s, 215° | - | - |
* Rain latest hour (hover to see other rain measurements)
** Current wind speed in m/s (hover to see current wind gust speed)